Location: Peebles
(55.6412°N, 3.1714°W)
Time: 13:15:07
(UTC+00:00)

CUTE-I - Pass Details

Date: 13 December 2023
Orbit: 807 x 823 km, 98.7° (Epoch: 24 February)

Event Time Altitude Azimuth Distance (km) Brightness Sun altitude
Rises 17:04:08 0° 156° (SSE) 3,325 ? -10.6°
Reaches altitude 10° 17:06:27 10° 155° (SSE) 2,400 ? -10.9°
Maximum altitude 17:11:46 78° 70° (ENE) 842 ? -11.6°
Drops below altitude 10° 17:17:08 10° 345° (NNW) 2,427 ? -12.3°
Sets 17:19:30 0° 345° (NNW) 3,366 ? -12.6°
